Weather History for Lincoln, NE

Change the Weather History Date:

Tuesday, November 6, 2012

  Actual Average Record
Temperature  
Mean Temperature 46 °F 44 °F  
Max Temperature 58 °F 56 °F 82 °F (1980)
Min Temperature 33 °F 32 °F 8 °F (1991)
Degree Days  
Heating Degree Days 19 21  
Month to date heating degree days 121 118  
Since 1 July heating degree days 703 597  
Cooling Degree Days 0 0  
Month to date cooling degree days 0 0  
Year to date cooling degree days 1491 1173  
Moisture  
Dew Point 30 °F    
Average Humidity 60    
Maximum Humidity 92    
Minimum Humidity 28    
Precipitation  
Precipitation 0.00 in 0.06 in 1.12 in (1946)
Month to date precipitation 0.08 0.34  
Year to date precipitation 17.57 26.91  
Snow  
Snow 0.00 in 0.10 in - ()
Month to date snowfall 0.0 0.3  
Since 1 July snowfall 0.0 1.0  
Snow Depth 0.00 in    
Sea Level Pressure  
Sea Level Pressure 30.07 in    
Wind  
Wind Speed 14 mph (WNW)    
Max Wind Speed 33 mph    
Max Gust Speed 39 mph    
Visibility 9 miles    
Events      
T = Trace of Precipitation, MM = Missing Value Source: NWS Daily Summary

Daily Weather History Graph

Daily Weather History Graph

Search for Another Location

Airport:

Trip Planner

Search our weather history database for the weather conditions in past years. The results will help you decide how hot, cold, wet, or windy it might be!

Date:

Astronomy

Nov. 06, 2012 Rise Set
Actual Time 7:04 AM CST 5:16 PM CST
Civil Twilight 6:35 AM CST 5:45 PM CST
Nautical Twilight 6:02 AM CST 6:18 PM CST
Astronomical Twilight 5:30 AM CST 6:50 PM CST
Moon 11:57 PM CST (11/6) 12:56 PM CST (11/6)
Length of Visible Light 11h 10m
Length of Day
10h 12m
Waning Gibbous, 53% of the Moon is Illuminated
Nov 6
Waning Gibbous
Nov 6
Last Quarter
Nov 13
New
Nov 20
First Quarter
Nov 28
Full

Hourly Weather History & Observations

Time (CST) Temp. Windchill Dew Point Humidity Pressure Visibility Wind Dir Wind Speed Gust Speed Precip Events Conditions
12:54 AM 39.0 °F 32.3 °F 36.0 °F 89% 30.04 in 6.0 mi South 10.4 mph - N/A   Partly Cloudy
1:54 AM 39.0 °F 34.8 °F 36.0 °F 89% 30.07 in 6.0 mi SSW 5.8 mph - N/A   Overcast
2:54 AM 39.0 °F 31.0 °F 36.0 °F 89% 30.01 in 6.0 mi SSW 13.8 mph - N/A   Mostly Cloudy
3:54 AM 39.9 °F 32.1 °F 36.0 °F 86% 30.00 in 7.0 mi SSW 13.8 mph - N/A   Scattered Clouds
4:54 AM 39.9 °F 35.8 °F 35.1 °F 83% 30.01 in 7.0 mi WSW 5.8 mph - N/A   Clear
5:54 AM 39.9 °F 32.9 °F 35.1 °F 83% 30.01 in 8.0 mi WSW 11.5 mph - N/A   Clear
6:54 AM 41.0 °F 35.8 °F 35.1 °F 79% 30.03 in 6.0 mi WNW 8.1 mph - N/A   Haze
7:54 AM 45.0 °F 37.9 °F 37.0 °F 74% 30.06 in 10.0 mi NNW 16.1 mph - N/A   Clear
8:54 AM 48.0 °F - 35.1 °F 61% 30.09 in 10.0 mi NNW 15.0 mph 25.3 mph N/A   Clear
9:54 AM 51.1 °F - 32.0 °F 48% 30.09 in 10.0 mi NNW 19.6 mph 26.5 mph N/A   Clear
10:54 AM 54.0 °F - 30.0 °F 40% 30.09 in 10.0 mi NNW 24.2 mph 31.1 mph N/A   Clear
11:54 AM 55.9 °F - 28.0 °F 34% 30.07 in 10.0 mi NW 25.3 mph 32.2 mph N/A   Clear
12:54 PM 57.0 °F - 27.0 °F 32% 30.05 in 10.0 mi NW 26.5 mph 34.5 mph N/A   Clear
1:54 PM 57.9 °F - 25.0 °F 28% 30.04 in 10.0 mi NW 31.1 mph 38.0 mph N/A   Clear
2:54 PM 57.9 °F - 24.1 °F 27% 30.04 in 10.0 mi NW 27.6 mph 39.1 mph N/A   Clear
3:54 PM 57.0 °F - 24.1 °F 28% 30.05 in 10.0 mi NW 24.2 mph 35.7 mph N/A   Clear
4:54 PM 55.0 °F - 26.1 °F 33% 30.07 in 10.0 mi NW 15.0 mph 24.2 mph N/A   Clear
5:54 PM 51.1 °F - 27.0 °F 39% 30.09 in 9.0 mi NW 6.9 mph - N/A   Clear
6:54 PM 48.9 °F - 27.0 °F 43% 30.11 in 9.0 mi NW 9.2 mph - N/A   Clear
7:54 PM 46.0 °F 43.1 °F 27.0 °F 47% 30.12 in 7.0 mi WNW 5.8 mph - N/A   Clear
8:54 PM 44.1 °F - 26.1 °F 49% 30.12 in 7.0 mi Calm Calm - N/A   Clear
9:54 PM 42.1 °F 40.2 °F 26.1 °F 53% 30.12 in 9.0 mi NW 3.5 mph - N/A   Clear
10:54 PM 42.1 °F 37.1 °F 26.1 °F 53% 30.12 in 10.0 mi NW 8.1 mph - N/A   Clear
11:54 PM 33.1 °F 28.7 °F 25.0 °F 72% 30.13 in 10.0 mi NNW 4.6 mph - N/A   Clear